SCP
0 0 0 0 0 0 0 0 0 0 0 0 0 0 0 0 0 0 0 0 0 0 0 0 0 0 0 0 0 0 0 0 0 0 0 0 0 0 0 0 0 0 0 0
0 0 0 0 0 0 0 0 0 0 0 0 0 0 0 0 0 0 0 0 0 0 0 0 0 0 0 0 0 0 0 0 0 0 0 0 0 0 0 0 0 0 0 0
0 0 0 0 0 0 0 0 0 0 0 0 0 0 0 0 0 0 0 0 0 0 0 0 0 0 0 0 0 0 0 0 0 0 0 0 0 0 0 0 0 0 0 0
0 0 0 0 0 0 0 0 0 0 0 0 0 0 0 0 0 0 0 0 0 0 0 0 0 0 0 0 0 0 0 0 0 0 0 0 0 0 0 0 0 0 0 0
0 0 0 0 0 0 0 0 0 0 0 0 0 0 0 0 0 0 0 0 0 0 0 0 0 0 0 0 0 0 0 0 0 0 0 0 0 0 0 0 0 0 0 0
0 0 0 0 0 0 0 0 0 0 0 0 0 0 0 0 0 0 0 0 0 0 0 0 0 0 0 0 0 0 0 0 0 0 0 0 0 0 0 0 0 0 0 0
0 0 0 0 0 0 0 0 0 0 0 0 0 0 0 0 0 0 0 0 0 0 0 0 0 0 0 0 0 0 0 0 0 0 0 0 0 0 0 0 0 0 0 0
0 0 0 0 0 0 0 0 0 0 0 0 0 0 0 0 0 0 0 0 0 0 0 0 0 0 0 0 0 0 0 0 0 0 0 0 0 0 0 0 0 0 0 0
0 0 0 0 0 0 0 0 0 0 0 0 0 0 0 0 0 0 0 0 0 0 0 0 0 0 0 0 0 0 0 0 0 0 0 0 0 0 0 0 0 0 0 0
0 0 0 0 0 0 0 0 0 0 0 0 0 0 0 0 0 0 0 0 0 0 0 0 0 0 0 0 0 0 0 0 0 0 0 0 0 0 0 0 0 0 0 0
0 0 0 0 0 0 0 0 0 0 0 0 0 0 0 0 0 0 0 0 0 0 0 0 0 0 0 0 0 0 0 0 0 0 0 0 0 0 0 0 0 0 0 0
0 0 0 0 0 0 0 0 0 0 0 0 0 0 0 0 0 0 0 0 0 0 0 0 0 0 0 0 0 0 0 0 0 0 0 0 0 0 0 0 0 0 0 0
0 0 0 0 0 0 0 0 0 0 0 0 0 0 0 -0 0 0 0 0 0 0 0 0 0 0 0 0 0 0 0 0 0 0 0 0 0 0 0 0 0 0 0 0
0 0 0 0 0 0 0 0 0 0 0 0 0 0 0 0 0 -0 -0 -0 -0 -0 0 0 0 0 0 0 0 0 0 0 0 0 0 0 0 0 0 0 0 0 0 0
0 0 0 0 0 0 0 -0 0 0 0 0 0 0 0 0 0 0 -0 0 0 -0 -0 -0 0 0 0 0 0 0 0 0 0 0 0 0 0 0 0 0 0 0 0 0
0 0 0 0 0 0 0 0 0 0 0 0 0 0 0 -0 0 0 0 0 0 0 0 0 0 0 0 0 0 0 0 0 0 0 0 0 0 0 0 0 0 0 0 0
0 0 0 0 0 0 0 0 0 0 0 0 0 0 0 0 0 0 0 0 0 0 0 0 0 0 0 0 0 0 0 0 0 0 0 0 0 0 0 0 0 0 0 0
0 0 0 0 0 0 0 0 0 0 0 0 0 0 0 0 0 0 0 0 0 0 0 0 0 0 0 0 0 0 0 0 0 0 0 0 0 0 0 0 0 0 0 0
0 0 0 0 0 0 0 0 0 0 0 0 0 0 0 0 0 0 0 0 0 0 0 0 0 0 0 0 0 0 0 0 0 0 0 0 0 0 0 0 0 0 0 0
0 0 0 0 0 0 0 0 0 0 0 0 0 0 0 0 0 0 0 0 0 0 0 0 0 0 0 0 0 0 0 0 0 0 0 0 0 0 0 0 0 0 0 0
0 0 0 0 0 0 0 0 0 0 0 0 0 0 0 0 0 0 0 0 0 0 0 0 0 0 0 0 0 0 0 0 0 0 0 0 0 0 0 0 0 0 0 0
0 0 0 0 0 0 0 0 0 0 0 0 0 0 0 0 0 0 0 0 0 0 0 0 0 0 0 0 0 0 0 0 0 0 0 0 0 0 0 0 0 0 0 0
0 0 0 0 0 0 0 0 0 0 0 0 0 0 0 0 0 0 0 0 0 0 0 0 0 0 0 0 0 0 0 0 0 0 0 0 0 0 0 0 0 0 0 0
0 0 0 0 0 0 0 0 0 0 0 0 0 0 0 0 0 0 0 0 0 0 0 0 0 0 0 0 0 0 0 0 0 0 0 0 0 0 0 0 0 0 0 0
0 0 0 0 0 0 0 0 0 0 0 0 0 0 0 0 0 0 0 0 0 0 0 0 0 0 0 0 0 0 0 0 0 0 0 0 0 0 0 0 0 0 0 0
0 0 0 0 0 0 0 0 0 0 0 0 0 0 0 0 0 0 0 0 0 0 0 0 0 0 0 0 0 0 0 0 0 0 0 0 0 0 0 0 0 0 0 0
Wind_Speed_500mb
11 6 13 17 12 4 13 10 11 7 6 8 20 19 16 17 18 13 11 22 25 27 24 18 38 56 52 47 48 51 53 57 59 66 65 60 61 56 52 51 48 46 43 43
7 11 11 12 12 10 9 14 12 5 8 9 3 9 9 12 14 29 30 32 27 27 28 19 18 41 63 62 51 53 52 48 52 58 60 62 62 61 56 54 54 52 49 47
7 9 22 15 11 13 10 10 8 6 4 4 5 8 9 13 18 26 37 41 38 35 28 22 24 18 40 65 63 61 52 45 49 51 50 60 59 60 62 64 62 59 55 51
5 8 18 8 9 10 9 12 9 9 3 6 4 8 8 11 17 14 46 44 43 40 32 29 25 26 27 47 61 65 62 53 50 48 48 51 53 71 67 65 61 60 55 53
9 5 7 5 7 9 8 10 9 5 6 5 2 6 14 4 11 16 20 32 37 35 35 37 36 34 33 38 45 56 56 55 56 58 58 55 50 54 68 60 59 57 55 53
12 2 11 16 8 10 12 10 12 8 6 4 11 10 10 8 12 2 3 29 33 36 33 32 29 30 32 31 36 38 44 46 55 58 58 61 56 51 55 64 57 54 53 56
2 1 1 10 11 3 9 10 5 5 3 9 6 7 15 11 9 7 13 24 25 23 22 20 22 23 25 29 29 32 39 43 45 50 58 62 62 57 56 59 58 53 56 60
9 2 13 6 8 11 10 12 9 13 6 6 6 10 10 6 16 33 36 24 18 14 11 9 10 14 20 26 32 32 32 38 44 45 43 55 58 65 64 64 63 59 59 66
7 4 1 6 6 18 8 6 9 9 4 6 5 8 3 6 13 23 27 20 15 12 7 3 5 9 12 19 28 32 34 37 42 44 52 52 47 62 72 65 66 66 66 67
3 4 6 5 4 2 11 12 3 4 6 4 5 4 5 2 6 7 10 15 13 8 5 3 4 5 9 13 17 20 24 25 28 35 35 40 46 38 40 43 51 53 50 53
7 5 4 3 6 3 5 6 5 6 7 7 4 5 7 11 12 15 14 11 8 7 4 2 2 4 4 6 10 14 17 19 20 21 25 25 25 30 30 35 29 29 40 38
6 5 4 4 7 8 1 2 9 6 7 3 4 6 9 11 17 19 16 13 9 3 2 0 1 2 1 1 5 8 11 14 17 19 21 23 25 30 28 22 20 22 24 24
9 2 5 7 6 4 6 4 5 5 1 7 9 7 7 12 15 13 20 16 12 9 6 3 2 2 4 6 7 9 10 10 12 14 14 18 23 24 22 19 16 14 11 9
6 7 9 10 7 5 6 9 3 2 2 4 5 6 8 5 5 7 14 18 16 12 10 8 5 4 6 8 11 13 16 16 16 17 20 21 21 20 19 19 17 16 14 12
7 7 2 0 1 5 10 11 9 9 9 8 9 2 14 18 12 30 31 28 25 23 19 14 11 9 8 10 12 15 17 20 20 20 22 23 23 23 22 22 21 20 18 15
7 1 4 11 13 6 2 6 8 7 4 10 5 14 19 35 25 22 36 34 32 31 26 21 18 16 14 13 14 16 18 19 19 19 21 23 23 23 22 21 20 18 17 14
6 8 6 6 9 10 11 7 9 9 7 10 9 15 3 8 16 37 44 42 39 35 30 29 23 18 16 16 16 16 18 19 20 19 20 21 20 19 18 17 15 12 10 9
8 8 5 4 8 5 12 10 12 9 13 11 14 8 13 23 28 25 33 40 34 32 32 30 26 25 22 19 18 18 18 18 17 17 16 16 15 14 13 12 11 9 8 6
8 8 6 7 5 9 11 6 5 5 7 2 10 13 22 21 6 17 21 34 25 32 29 24 21 21 22 21 21 19 17 16 14 14 14 14 12 11 10 9 8 7 7 6
9 12 8 6 10 10 11 5 4 5 7 6 5 13 17 13 5 8 18 29 24 28 31 34 28 26 25 24 23 20 18 16 15 15 16 17 16 14 12 11 9 6 4 4
6 7 9 4 4 15 16 16 5 11 10 3 7 14 15 6 8 10 15 26 31 37 41 35 27 23 24 25 22 18 17 20 19 20 17 14 12 10 8 6 6 6 7 8
11 11 7 5 6 14 11 6 11 8 5 2 8 13 15 12 17 11 12 18 30 39 45 41 38 35 31 29 30 30 29 27 24 21 19 18 14 13 11 11 12 12 11 11
3 11 8 16 12 13 18 18 13 12 10 11 19 17 19 20 19 16 14 18 26 34 38 38 36 37 34 32 29 28 28 27 25 24 20 19 16 16 15 13 12 12 13 13
8 13 5 6 11 29 45 36 36 36 41 38 26 21 20 22 19 22 20 18 21 23 28 29 33 35 32 30 30 30 29 28 26 23 21 19 18 18 17 17 18 18 19 19
10 15 11 11 12 22 42 43 47 45 38 35 33 27 28 27 21 19 17 15 16 17 20 22 24 26 27 28 30 31 30 29 26 24 23 22 23 24 24 25 25 26 26 24
24 15 10 14 24 20 19 25 21 14 9 12 12 14 20 23 23 19 19 16 15 15 17 19 22 25 25 25 28 30 30 29 29 29 29 29 30 31 31 33 34 33 30 27
Wind_Direction_500mb
182 140 189 181 186 112 159 173 184 228 213 198 224 210 228 203 220 203 223 222 219 218 220 237 222 226 224 222 218 217 216 220 226 225 220 221 223 225 230 231 233 234 236 235
147 199 212 188 206 184 157 159 196 81 299 194 200 232 235 244 211 227 227 233 225 229 226 196 193 211 220 224 223 223 225 227 227 232 231 225 227 229 233 234 236 235 238 238
169 178 190 183 189 195 197 174 176 142 237 5 89 306 241 254 235 238 246 240 230 233 219 192 188 179 204 214 218 221 230 236 229 233 231 227 232 232 233 234 237 240 241 241
236 289 169 156 202 169 161 191 142 140 80 192 62 258 267 246 248 220 237 234 228 229 215 198 189 184 186 203 211 220 225 231 231 237 237 239 246 231 232 232 238 240 240 241
219 215 177 191 193 155 164 101 142 140 118 54 343 87 278 291 262 247 240 213 205 190 185 182 188 189 187 190 200 215 222 225 231 231 234 241 251 247 235 238 239 240 241 243
212 296 153 190 179 156 135 79 47 60 87 328 211 141 270 229 225 204 94 163 162 165 169 173 178 185 196 199 202 203 213 219 225 237 236 239 245 245 237 237 238 244 243 241
127 114 226 170 124 112 113 100 35 14 3 219 140 143 252 248 273 248 146 135 147 152 162 174 191 195 202 212 222 219 219 221 225 231 235 238 239 239 237 232 236 237 240 245
145 328 174 191 180 163 166 164 156 186 191 220 106 213 251 344 53 117 136 134 131 133 147 176 212 230 229 224 234 238 233 232 233 228 232 240 238 239 237 237 231 237 238 238
133 233 102 163 148 143 206 163 159 104 41 69 231 293 315 79 68 83 110 125 113 108 101 136 208 225 231 231 238 240 239 236 233 230 230 234 236 234 237 234 239 240 239 238
153 103 28 232 93 76 157 157 80 4 123 216 274 266 238 269 213 139 124 120 120 100 79 17 316 267 241 238 234 238 241 236 228 226 223 226 224 228 236 235 230 234 234 235
131 79 306 87 20 154 127 163 72 137 148 167 148 262 342 319 257 176 151 148 142 125 90 39 332 321 299 253 234 228 222 225 221 215 209 207 204 214 208 220 218 225 226 208
171 113 98 42 105 48 62 117 155 142 259 248 96 282 353 35 42 106 116 141 146 146 144 180 343 6 0 203 187 195 195 196 196 199 203 197 213 223 223 226 214 208 222 220
169 355 81 0 353 10 75 349 41 111 96 201 146 245 45 51 67 126 155 170 174 174 175 173 156 132 114 114 119 135 143 158 166 173 183 191 201 211 206 194 200 207 208 224
117 101 153 174 168 132 154 173 176 312 210 171 200 163 270 329 153 208 198 192 192 197 195 200 196 160 135 121 114 117 131 133 144 158 171 176 178 180 182 184 186 185 179 181
87 118 96 215 213 112 163 165 177 189 194 160 216 178 286 273 243 207 214 202 196 195 200 202 200 190 165 145 135 132 130 129 130 138 140 141 141 141 142 142 144 145 145 151
19 66 80 7 351 19 256 235 204 216 241 264 238 269 245 260 239 225 203 205 209 208 198 200 197 188 177 165 153 146 144 140 134 137 140 136 136 137 137 137 137 137 140 145
73 114 67 291 350 4 349 262 216 238 198 159 179 238 269 264 220 216 209 210 217 210 205 199 193 186 183 175 166 158 151 145 143 144 141 137 136 138 137 137 138 140 148 151
113 84 78 178 24 33 243 305 227 235 270 270 272 267 220 241 239 244 228 216 221 221 207 197 188 179 180 180 177 171 161 156 154 153 152 151 152 156 155 153 152 157 163 167
67 112 77 119 175 286 315 261 168 144 270 309 297 312 270 232 252 262 244 225 240 228 210 196 179 179 181 184 185 181 180 180 180 183 178 174 168 166 169 171 174 180 188 194
41 52 104 81 129 197 233 234 203 129 293 328 329 315 318 173 205 255 226 222 222 206 202 190 187 189 188 190 193 193 195 196 196 192 190 187 184 182 183 186 189 195 207 239
29 4 130 160 187 288 245 235 152 88 235 195 332 350 345 219 239 298 220 214 210 207 203 200 202 202 188 190 197 203 217 211 207 215 206 204 201 201 211 227 244 255 265 269
165 138 194 84 76 279 213 123 169 205 152 319 340 347 336 291 273 250 233 218 213 209 203 208 210 207 203 206 215 220 219 213 206 206 208 210 210 219 229 238 248 254 260 269
306 184 181 182 209 229 191 218 226 251 252 290 307 307 323 314 288 266 249 231 216 215 218 221 221 220 220 227 226 217 212 211 206 209 216 220 227 238 244 253 266 277 281 281
255 174 204 79 255 239 253 255 263 270 271 286 286 285 290 311 297 278 263 243 225 216 218 223 221 225 228 221 213 207 210 214 217 222 228 240 250 254 265 274 276 278 277 273
202 148 189 258 281 278 266 260 266 272 272 266 264 266 288 282 283 268 248 224 207 205 209 213 218 216 213 216 215 215 217 221 228 235 243 252 258 265 272 273 271 268 260 251
182 196 184 233 227 219 250 284 282 282 266 232 228 259 283 283 255 240 232 223 219 215 207 206 211 215 218 221 225 226 228 233 239 246 254 260 265 268 269 268 264 257 251 246
Wind_Speed_850mb
11 6 13 17 12 4 13 10 11 7 6 8 20 19 16 17 18 13 11 22 25 27 24 18 38 56 52 47 48 51 53 57 59 66 65 60 61 56 52 51 48 46 43 43
7 11 11 12 12 10 9 14 12 5 8 9 3 9 9 12 14 29 30 32 27 27 28 19 18 41 63 62 51 53 52 48 52 58 60 62 62 61 56 54 54 52 49 47
7 9 22 15 11 13 10 10 8 6 4 4 5 8 9 13 18 26 37 41 38 35 28 22 24 18 40 65 63 61 52 45 49 51 50 60 59 60 62 64 62 59 55 51
5 8 18 8 9 10 9 12 9 9 3 6 4 8 8 11 17 14 46 44 43 40 32 29 25 26 27 47 61 65 62 53 50 48 48 51 53 71 67 65 61 60 55 53
9 5 7 5 7 9 8 10 9 5 6 5 2 6 14 4 11 16 20 32 37 35 35 37 36 34 33 38 45 56 56 55 56 58 58 55 50 54 68 60 59 57 55 53
12 2 11 16 8 10 12 10 12 8 6 4 11 10 10 8 12 2 3 29 33 36 33 32 29 30 32 31 36 38 44 46 55 58 58 61 56 51 55 64 57 54 53 56
2 1 1 10 11 3 9 10 5 5 3 9 6 7 15 11 9 7 13 24 25 23 22 20 22 23 25 29 29 32 39 43 45 50 58 62 62 57 56 59 58 53 56 60
9 2 13 6 8 11 10 12 9 13 6 6 6 10 10 6 16 33 36 24 18 14 11 9 10 14 20 26 32 32 32 38 44 45 43 55 58 65 64 64 63 59 59 66
7 4 1 6 6 18 8 6 9 9 4 6 5 8 3 6 13 23 27 20 15 12 7 3 5 9 12 19 28 32 34 37 42 44 52 52 47 62 72 65 66 66 66 67
3 4 6 5 4 2 11 12 3 4 6 4 5 4 5 2 6 7 10 15 13 8 5 3 4 5 9 13 17 20 24 25 28 35 35 40 46 38 40 43 51 53 50 53
7 5 4 3 6 3 5 6 5 6 7 7 4 5 7 11 12 15 14 11 8 7 4 2 2 4 4 6 10 14 17 19 20 21 25 25 25 30 30 35 29 29 40 38
6 5 4 4 7 8 1 2 9 6 7 3 4 6 9 11 17 19 16 13 9 3 2 0 1 2 1 1 5 8 11 14 17 19 21 23 25 30 28 22 20 22 24 24
9 2 5 7 6 4 6 4 5 5 1 7 9 7 7 12 15 13 20 16 12 9 6 3 2 2 4 6 7 9 10 10 12 14 14 18 23 24 22 19 16 14 11 9
6 7 9 10 7 5 6 9 3 2 2 4 5 6 8 5 5 7 14 18 16 12 10 8 5 4 6 8 11 13 16 16 16 17 20 21 21 20 19 19 17 16 14 12
7 7 2 0 1 5 10 11 9 9 9 8 9 2 14 18 12 30 31 28 25 23 19 14 11 9 8 10 12 15 17 20 20 20 22 23 23 23 22 22 21 20 18 15
7 1 4 11 13 6 2 6 8 7 4 10 5 14 19 35 25 22 36 34 32 31 26 21 18 16 14 13 14 16 18 19 19 19 21 23 23 23 22 21 20 18 17 14
6 8 6 6 9 10 11 7 9 9 7 10 9 15 3 8 16 37 44 42 39 35 30 29 23 18 16 16 16 16 18 19 20 19 20 21 20 19 18 17 15 12 10 9
8 8 5 4 8 5 12 10 12 9 13 11 14 8 13 23 28 25 33 40 34 32 32 30 26 25 22 19 18 18 18 18 17 17 16 16 15 14 13 12 11 9 8 6
8 8 6 7 5 9 11 6 5 5 7 2 10 13 22 21 6 17 21 34 25 32 29 24 21 21 22 21 21 19 17 16 14 14 14 14 12 11 10 9 8 7 7 6
9 12 8 6 10 10 11 5 4 5 7 6 5 13 17 13 5 8 18 29 24 28 31 34 28 26 25 24 23 20 18 16 15 15 16 17 16 14 12 11 9 6 4 4
6 7 9 4 4 15 16 16 5 11 10 3 7 14 15 6 8 10 15 26 31 37 41 35 27 23 24 25 22 18 17 20 19 20 17 14 12 10 8 6 6 6 7 8
11 11 7 5 6 14 11 6 11 8 5 2 8 13 15 12 17 11 12 18 30 39 45 41 38 35 31 29 30 30 29 27 24 21 19 18 14 13 11 11 12 12 11 11
3 11 8 16 12 13 18 18 13 12 10 11 19 17 19 20 19 16 14 18 26 34 38 38 36 37 34 32 29 28 28 27 25 24 20 19 16 16 15 13 12 12 13 13
8 13 5 6 11 29 45 36 36 36 41 38 26 21 20 22 19 22 20 18 21 23 28 29 33 35 32 30 30 30 29 28 26 23 21 19 18 18 17 17 18 18 19 19
10 15 11 11 12 22 42 43 47 45 38 35 33 27 28 27 21 19 17 15 16 17 20 22 24 26 27 28 30 31 30 29 26 24 23 22 23 24 24 25 25 26 26 24
24 15 10 14 24 20 19 25 21 14 9 12 12 14 20 23 23 19 19 16 15 15 17 19 22 25 25 25 28 30 30 29 29 29 29 29 30 31 31 33 34 33 30 27
Wind_Direction_850mb
182 140 189 181 186 112 159 173 184 228 213 198 224 210 228 203 220 203 223 222 219 218 220 237 222 226 224 222 218 217 216 220 226 225 220 221 223 225 230 231 233 234 236 235
147 199 212 188 206 184 157 159 196 81 299 194 200 232 235 244 211 227 227 233 225 229 226 196 193 211 220 224 223 223 225 227 227 232 231 225 227 229 233 234 236 235 238 238
169 178 190 183 189 195 197 174 176 142 237 5 89 306 241 254 235 238 246 240 230 233 219 192 188 179 204 214 218 221 230 236 229 233 231 227 232 232 233 234 237 240 241 241
236 289 169 156 202 169 161 191 142 140 80 192 62 258 267 246 248 220 237 234 228 229 215 198 189 184 186 203 211 220 225 231 231 237 237 239 246 231 232 232 238 240 240 241
219 215 177 191 193 155 164 101 142 140 118 54 343 87 278 291 262 247 240 213 205 190 185 182 188 189 187 190 200 215 222 225 231 231 234 241 251 247 235 238 239 240 241 243
212 296 153 190 179 156 135 79 47 60 87 328 211 141 270 229 225 204 94 163 162 165 169 173 178 185 196 199 202 203 213 219 225 237 236 239 245 245 237 237 238 244 243 241
127 114 226 170 124 112 113 100 35 14 3 219 140 143 252 248 273 248 146 135 147 152 162 174 191 195 202 212 222 219 219 221 225 231 235 238 239 239 237 232 236 237 240 245
145 328 174 191 180 163 166 164 156 186 191 220 106 213 251 344 53 117 136 134 131 133 147 176 212 230 229 224 234 238 233 232 233 228 232 240 238 239 237 237 231 237 238 238
133 233 102 163 148 143 206 163 159 104 41 69 231 293 315 79 68 83 110 125 113 108 101 136 208 225 231 231 238 240 239 236 233 230 230 234 236 234 237 234 239 240 239 238
153 103 28 232 93 76 157 157 80 4 123 216 274 266 238 269 213 139 124 120 120 100 79 17 316 267 241 238 234 238 241 236 228 226 223 226 224 228 236 235 230 234 234 235
131 79 306 87 20 154 127 163 72 137 148 167 148 262 342 319 257 176 151 148 142 125 90 39 332 321 299 253 234 228 222 225 221 215 209 207 204 214 208 220 218 225 226 208
171 113 98 42 105 48 62 117 155 142 259 248 96 282 353 35 42 106 116 141 146 146 144 180 343 6 0 203 187 195 195 196 196 199 203 197 213 223 223 226 214 208 222 220
169 355 81 0 353 10 75 349 41 111 96 201 146 245 45 51 67 126 155 170 174 174 175 173 156 132 114 114 119 135 143 158 166 173 183 191 201 211 206 194 200 207 208 224
117 101 153 174 168 132 154 173 176 312 210 171 200 163 270 329 153 208 198 192 192 197 195 200 196 160 135 121 114 117 131 133 144 158 171 176 178 180 182 184 186 185 179 181
87 118 96 215 213 112 163 165 177 189 194 160 216 178 286 273 243 207 214 202 196 195 200 202 200 190 165 145 135 132 130 129 130 138 140 141 141 141 142 142 144 145 145 151
19 66 80 7 351 19 256 235 204 216 241 264 238 269 245 260 239 225 203 205 209 208 198 200 197 188 177 165 153 146 144 140 134 137 140 136 136 137 137 137 137 137 140 145
73 114 67 291 350 4 349 262 216 238 198 159 179 238 269 264 220 216 209 210 217 210 205 199 193 186 183 175 166 158 151 145 143 144 141 137 136 138 137 137 138 140 148 151
113 84 78 178 24 33 243 305 227 235 270 270 272 267 220 241 239 244 228 216 221 221 207 197 188 179 180 180 177 171 161 156 154 153 152 151 152 156 155 153 152 157 163 167
67 112 77 119 175 286 315 261 168 144 270 309 297 312 270 232 252 262 244 225 240 228 210 196 179 179 181 184 185 181 180 180 180 183 178 174 168 166 169 171 174 180 188 194
41 52 104 81 129 197 233 234 203 129 293 328 329 315 318 173 205 255 226 222 222 206 202 190 187 189 188 190 193 193 195 196 196 192 190 187 184 182 183 186 189 195 207 239
29 4 130 160 187 288 245 235 152 88 235 195 332 350 345 219 239 298 220 214 210 207 203 200 202 202 188 190 197 203 217 211 207 215 206 204 201 201 211 227 244 255 265 269
165 138 194 84 76 279 213 123 169 205 152 319 340 347 336 291 273 250 233 218 213 209 203 208 210 207 203 206 215 220 219 213 206 206 208 210 210 219 229 238 248 254 260 269
306 184 181 182 209 229 191 218 226 251 252 290 307 307 323 314 288 266 249 231 216 215 218 221 221 220 220 227 226 217 212 211 206 209 216 220 227 238 244 253 266 277 281 281
255 174 204 79 255 239 253 255 263 270 271 286 286 285 290 311 297 278 263 243 225 216 218 223 221 225 228 221 213 207 210 214 217 222 228 240 250 254 265 274 276 278 277 273
202 148 189 258 281 278 266 260 266 272 272 266 264 266 288 282 283 268 248 224 207 205 209 213 218 216 213 216 215 215 217 221 228 235 243 252 258 265 272 273 271 268 260 251
182 196 184 233 227 219 250 284 282 282 266 232 228 259 283 283 255 240 232 223 219 215 207 206 211 215 218 221 225 226 228 233 239 246 254 260 265 268 269 268 264 257 251 246